Water Levels and Discharges  |  Reservoirs  |  Precipitation  |  Water quality Last site revision 09.05.2026 04:55
       
Water Levels and Discharges All data are without validation 09.05.2026 04:57:15
Les Království
River: Labe
Crest of dam elevation: 327,31 [m asl]
Spillway elevation: 323,40 [m asl]
Maximum flood control capacity level: 324,85 [m asl]
Usable storage capacity level: 315,60 [m asl]
Ineffective storage level: 307,60 [m asl]
Vertical coordinate system: Balt p.v.
Remark:
Schema:
Go to balance data (monthly series)
Graf
Date Water level [m. n. m.] Outflow [m3s-1] QN
09.05.2026 04:50 6,35
09.05.2026 04:40 317,12
09.05.2026 04:00 317,12 6,35
09.05.2026 03:00 317,12 6,32
09.05.2026 02:00 317,12 6,33
09.05.2026 01:00 317,11 6,34
09.05.2026 00:00 317,13 6,37
08.05.2026 23:00 317,13 6,32
08.05.2026 22:00 317,13 6,31
08.05.2026 21:00 317,13 6,34
08.05.2026 20:00 317,15 6,36
08.05.2026 19:00 317,17 6,30
08.05.2026 18:00 317,17 6,32
08.05.2026 17:00 317,17 6,32
08.05.2026 16:00 317,17 6,32
08.05.2026 15:00 317,17 6,31
08.05.2026 14:00 317,17 6,30
08.05.2026 13:00 317,17 6,32
08.05.2026 12:00 317,17 6,30
08.05.2026 11:00 317,17 6,33
08.05.2026 10:00 317,17 6,33
08.05.2026 09:00 317,17 6,30
08.05.2026 08:00 317,17 6,30
08.05.2026 07:00 317,17 6,33
08.05.2026 06:00 317,17 6,31
08.05.2026 05:00 317,16 6,31
07.05.2026 07:00 316,99 4,27
06.05.2026 07:00 316,69 4,28
05.05.2026 07:00 316,59 4,27
04.05.2026 07:00 316,52 4,29
03.05.2026 07:00 316,48 4,27
This information is also available through the application for mobile phones with Android OS (only in the Czech language)  Reservoir levels
  Povodí Labe, státní podnik © 2026 The system uses also data from measuring stations of   Czech Hydrometeorological Institute © 2026 Application developed by   MGE Data s.r.o. © 1996 - 2024